Zurück zum Katalog

YUNYAO-1 27

AktivWetterSSO
NORAD 65490·PAYLOAD·🇨🇳 China
Dieser Satellitenname wurde noch nicht durch offizielle Quellen bestätigt.

Gestartet Sep 5, 2025 von Jiuquan Satellite Launch Center

Loading…

Nächste Überflüge (nächste 24 Stunden)

TLE

AktuellSource: Space-Track

Epoche: Sep 14, 2026, 11:30 UTC

1 65490U 25197C   26257.47971591  .00003493  00000-0  14186-3 0  9995
2 65490  97.4110  83.5485 0015582  59.2012 301.0757 15.25141034 56922

Verfolge YUNYAO-1 27 in Echtzeit mit AllMySat

Download on the App Store